FW3072 Weather Reports


time (UTC)temp
F
wind
direction
speed
knots
gust
knots
rain 1hr
in
rain 24hr
in
rain mn
in
humidity
%
barometer
mb
20260507085204 38 27 0.0 0.0 0.00 0.18 0.00 92 1012.4
20260507083202 38 27 0.0 0.0 0.00 0.20 0.00 92 1012.4
20260507082203 38 27 0.0 0.0 0.00 0.22 0.00 92 1012.4
20260507081224 38 27 0.0 0.0 0.00 0.23 0.00 92 1012.3
20260507080204 38 27 0.0 0.0 0.00 0.24 0.00 92 1012.3
20260507075203 38 27 0.0 0.0 0.00 0.25 0.00 92 1012.3
20260507074202 38 27 0.0 0.0 0.00 0.26 0.00 92 1012.1
20260507073203 39 27 0.0 0.0 0.00 0.28 0.00 92 1012.2
20260507072202 39 27 0.0 0.0 0.00 0.29 0.00 92 1012.0
20260507071203 39 27 0.0 0.0 0.00 0.30 0.00 92 1012.2
20260507070202 39 27 0.0 0.0 0.00 0.32 0.00 92 1012.2
20260507065203 40 27 0.0 0.0 0.00 0.33 0.00 92 1012.2
20260507064203 40 27 0.0 0.0 0.00 0.34 0.00 92 1012.4
20260507063203 41 27 0.0 0.0 0.00 0.36 0.00 92 1012.4
20260507062203 41 27 0.0 0.0 0.00 0.37 0.00 92 1012.6
20260507061203 41 27 0.0 0.0 0.00 0.37 0.00 92 1012.6
20260507060202 42 27 0.0 0.0 0.00 0.38 0.00 92 1012.6
20260507055225 42 27 0.0 0.0 0.00 0.38 0.00 92 1012.6
20260507054225 42 27 0.0 0.0 0.00 0.39 0.00 92 1012.8
20260507053204 42 27 0.0 0.0 0.00 0.40 0.00 92 1012.9
20260507052204 42 27 0.0 0.0 0.00 0.41 0.00 92 1012.9
20260507051203 42 27 0.0 0.0 0.00 0.43 0.00 92 1013.0
20260507050203 42 27 0.0 0.0 0.00 0.45 0.00 92 1013.0
20260507045202 42 27 0.0 0.0 0.00 0.47 0.00 92 1013.2
20260507044224 42 27 0.0 0.0 0.00 0.49 0.00 92 1013.1
20260507043202 43 27 0.0 0.0 0.00 0.51 0.00 92 1013.2
20260507042243 43 27 0.0 0.0 0.00 0.53 0.00 92 1013.2
20260507041203 43 27 0.0 0.0 0.00 0.54 0.00 92 1013.1
20260507040202 43 27 0.0 0.0 0.00 0.54 0.00 92 1013.1
20260507035201 43 27 0.0 0.0 0.00 0.55 0.55 92 1013.1
20260507034203 43 27 0.0 0.0 0.00 0.55 0.55 92 1013.0
20260507033201 43 27 0.0 0.0 0.00 0.55 0.55 92 1013.0
20260507032203 43 27 0.0 0.0 0.00 0.55 0.55 92 1012.9
20260507031201 43 27 0.0 0.0 0.00 0.57 0.55 92 1012.9
20260507030202 43 27 0.0 0.0 0.00 0.58 0.55 92 1013.0
20260507025201 43 27 0.0 0.0 0.00 0.59 0.55 92 1012.9
20260507024202 43 27 0.0 0.0 0.00 0.61 0.55 92 1012.9
20260507023224 43 27 0.0 0.0 0.00 0.62 0.55 92 1012.9
20260507022202 43 27 0.0 0.0 0.00 0.63 0.55 92 1012.9
20260507021202 43 27 0.0 0.0 0.00 0.64 0.55 92 1013.0
20260507020202 43 27 0.0 0.0 0.00 0.64 0.55 92 1013.2
20260507015202 43 27 0.0 0.0 0.00 0.65 0.55 92 1013.3
20260507014222 43 27 0.0 0.0 0.00 0.65 0.55 92 1013.3
20260507013223 43 27 0.0 0.0 0.00 0.65 0.55 92 1013.3
20260507012201 43 27 0.0 0.0 0.00 0.66 0.55 91 1013.0
20260507011203 43 27 0.0 0.0 0.00 0.66 0.55 91 1012.9
20260507010201 43 27 0.0 0.0 0.00 0.66 0.55 91 1012.8
20260507005203 43 27 0.0 0.0 0.00 0.67 0.55 91 1012.8
20260507004202 43 27 0.0 0.0 0.00 0.68 0.55 91 1012.7
20260507002244 43 27 0.0 0.0 0.00 0.73 0.55 91 1012.4
20260507001201 43 27 0.0 0.0 0.00 0.76 0.55 91 1012.3
20260507000204 43 27 0.0 0.0 0.00 0.79 0.55 91 1012.3
20260506235203 43 27 0.0 0.0 0.00 0.83 0.55 91 1012.2
20260506234225 43 27 0.0 0.0 0.00 0.86 0.55 91 1012.1
20260506233202 43 54 0.0 0.0 0.00 0.88 0.55 91 1012.2
20260506232222 43 5 0.0 0.0 0.00 0.89 0.55 91 1012.2
20260506231203 43 5 0.9 2.6 0.00 0.90 0.55 91 1012.1
20260506230204 43 34 0.0 5.2 0.00 0.92 0.55 91 1011.9
20260506225222 43 345 0.9 4.3 0.00 0.94 0.55 91 1011.8
20260506224202 43 25 0.9 4.3 0.00 0.96 0.55 91 1011.7
20260506223201 43 315 0.9 7.8 0.00 0.98 0.55 91 1011.4
20260506222203 43 4 0.9 4.3 0.00 0.99 0.55 91 1011.4
20260506221203 43 314 1.7 7.0 0.00 1.02 0.55 91 1011.1
20260506220203 43 343 3.5 6.1 0.00 1.04 0.55 91 1011.2
20260506215201 43 344 2.6 9.6 0.01 1.07 0.55 91 1011.3
20260506214202 43 279 0.9 7.0 0.01 1.09 0.55 90 1011.0
20260506213202 44 300 5.2 9.6 0.01 1.12 0.55 90 1010.9
20260506212202 44 296 4.3 12.2 0.01 1.15 0.55 90 1010.8
20260506211202 45 300 6.1 13.9 0.00 1.19 0.54 89 1010.5
20260506210202 46 296 5.2 11.3 0.00 1.23 0.54 88 1010.3
20260506205201 47 279 7.0 13.0 0.00 1.26 0.54 87 1010.2
20260506204223 48 303 6.1 13.0 0.00 1.28 0.54 87 1010.0
20260506203202 49 311 7.8 14.8 0.00 1.28 0.54 86 1009.8
20260506202222 50 232 3.5 7.0 0.00 1.28 0.54 88 1009.5
20260506201202 50 300 0.0 3.5 0.00 1.28 0.54 89 1009.5
20260506200202 50 237 0.0 3.5 0.00 1.28 0.54 89 1009.6
20260506195202 50 209 0.9 4.3 0.00 1.28 0.54 90 1009.5
20260506194222 49 253 0.9 2.6 0.00 1.28 0.54 90 1009.6
20260506193202 49 124 0.0 0.0 0.00 1.28 0.54 90 1009.6
20260506192202 50 124 0.0 0.0 0.00 1.28 0.54 90 1009.4
20260506191203 50 124 0.0 0.0 0.00 1.28 0.54 90 1009.5
20260506190202 50 124 0.0 0.0 0.00 1.28 0.54 90 1009.4
20260506185201 50 124 0.0 0.0 0.00 1.28 0.54 90 1009.3
20260506184226 50 124 0.0 1.7 0.00 1.28 0.54 91 1009.3
20260506183202 50 124 0.9 3.5 0.00 1.28 0.54 92 1009.3
20260506182202 49 124 0.9 2.6 0.00 1.28 0.54 92 1009.4
20260506181202 49 125 0.0 1.7 0.00 1.28 0.54 92 1009.5
20260506180202 49 125 0.9 3.5 0.00 1.28 0.54 92 1009.5
20260506175202 48 98 0.0 1.7 0.00 1.28 0.54 92 1009.5
20260506174201 48 98 0.0 2.6 0.00 1.28 0.54 92 1009.5
20260506173202 48 98 0.0 1.7 0.00 1.28 0.54 93 1009.5
20260506172202 48 98 0.0 2.6 0.00 1.28 0.54 93 1009.7
20260506171202 48 98 0.0 1.7 0.00 1.28 0.54 93 1009.7
20260506170245 48 98 0.9 3.5 0.00 1.28 0.54 93 1009.6
20260506165201 48 98 0.0 3.5 0.00 1.28 0.54 93 1009.4
20260506164203 48 98 0.0 3.5 0.00 1.28 0.54 93 1009.5
20260506163202 48 98 0.9 1.7 0.00 1.28 0.54 93 1009.3
20260506162202 47 98 0.0 0.9 0.00 1.28 0.54 93 1009.4
20260506161201 47 98 0.9 1.7 0.00 1.28 0.54 93 1009.5
20260506160202 47 98 0.0 2.6 0.00 1.28 0.54 93 1009.4
20260506155201 47 98 0.0 2.6 0.00 1.28 0.54 93 1009.3
20260506154202 47 98 0.0 1.7 0.00 1.28 0.54 93 1009.3
20260506153201 47 81 0.0 0.9 0.00 1.28 0.54 93 1009.3
20260506152203 47 81 0.0 4.3 0.00 1.28 0.54 93 1009.2
20260506151201 47 81 1.7 2.6 0.00 1.28 0.54 93 1009.0
20260506150204 46 81 0.9 4.3 0.00 1.28 0.54 93 1009.1
20260506145202 46 81 0.9 3.5 0.01 1.28 0.54 93 1009.0
20260506144203 46 96 2.6 5.2 0.01 1.28 0.54 94 1008.9
20260506143202 46 87 1.7 2.6 0.01 1.28 0.54 93 1008.7
20260506142201 46 74 0.0 2.6 0.01 1.28 0.54 93 1009.0
20260506141202 46 74 0.9 2.6 0.00 1.27 0.53 93 1009.0
20260506140201 45 57 0.9 3.5 0.00 1.27 0.53 93 1008.8
20260506135202 45 109 0.0 0.0 0.01 1.27 0.53 93 1008.7
20260506134222 45 109 0.0 1.7 0.00 1.26 0.52 93 1008.6
20260506133202 45 109 0.9 2.6 0.00 1.26 0.52 93 1008.5
20260506132203 45 108 0.0 2.6 0.00 1.26 0.52 93 1008.4
20260506131202 45 107 0.0 3.5 0.00 1.26 0.52 93 1008.4
20260506130201 45 91 0.9 1.7 0.00 1.26 0.52 93 1008.3
20260506125202 45 91 0.0 5.2 0.02 1.26 0.52 93 1008.2
20260506124229 45 110 1.7 3.5 0.02 1.26 0.52 93 1008.3
20260506123202 44 107 0.0 3.5 0.01 1.25 0.51 93 1008.3
20260506121203 44 109 1.7 6.1 0.00 1.24 0.50 93 1008.0
20260506120202 44 107 0.9 6.1 0.00 1.24 0.50 93 1007.8
20260506115205 44 109 0.9 7.8 0.03 1.24 0.50 93 1007.7
20260506114203 45 110 2.6 7.0 0.02 1.23 0.49 93 1007.6
20260506113201 45 105 3.5 7.0 0.02 1.23 0.49 93 1007.7
20260506112202 45 104 2.6 6.1 0.01 1.22 0.48 93 1007.6
20260506111202 45 97 3.5 7.0 0.00 1.21 0.47 93 1007.8
20260506110203 45 100 2.6 7.0 0.00 1.21 0.47 93 1008.0
20260506105201 45 83 1.7 7.0 0.03 1.20 0.46 93 1007.9
20260506104203 45 69 0.0 0.0 0.03 1.20 0.46 93 1007.7
20260506103201 45 71 0.0 3.5 0.02 1.19 0.45 93 1007.7
20260506102223 45 87 2.6 5.2 0.02 1.19 0.45 93 1007.2
20260506101201 45 119 1.7 6.1 0.01 1.18 0.44 93 1007.3
20260506100203 45 91 1.7 3.5 0.01 1.18 0.44 93 1007.8
20260506095203 45 86 2.6 6.1 0.06 1.17 0.43 93 1007.9
20260506094202 45 71 1.7 7.0 0.05 1.16 0.42 93 1008.0
20260506092201 45 102 1.7 3.5 0.03 1.14 0.40 93 1008.0
20260506091203 46 57 1.7 5.2 0.02 1.13 0.39 93 1008.0
20260506090202 46 77 2.6 6.1 0.00 1.11 0.37 93 1007.9